[[{"header":{"parameterUnit":"m.s-1","parameterCategory":2,"la1":30.2992,"la2":30.254,"lo1":-89.0895,"lo2":-89.0443,"dy":0.0025,"dx":0.0025,"nx":19,"ny":19,"refTime":"2026-05-11T09:00:00:Z","depth":"0","parameterNumber":2,"parameterNumberName":"U-component_of_CURRENTS"},"data":[0,0,0,-0.0007,-0.0008,-0.004,-0.004,-0.0042,-0.0042,0,0,0,0,0,0,0,0,0,0,0,0.0011,0.0011,-0.0007,-0.0008,-0.004,-0.004,-0.0042,-0.0042,0,0,0,0,0,0,0,0,0,0,0,0.0011,0.0011,0.0011,-0.0008,-0.004,-0.004,-0.0042,-0.0027,0,0,0,0,0,0,0,0,0,0,-0.0001,0.0016,0.0011,0.0011,-0.0008,-0.004,-0.004,-0.0027,-0.0028,-0.0016,0,-0.0017,0,-0.0032,-0.0041,-0.0041,0,0,0,-0.0007,0.0017,0.0001,0.0011,-0.0008,-0.004,-0.0025,-0.0028,-0.0029,-0.0017,-0.0018,-0.0018,-0.0032,-0.0041,-0.0041,0.0031,0.0031,0,0,-0.0006,0.0012,0.0002,0.0001,-0.0011,-0.0024,-0.0026,-0.0029,-0.0023,-0.0018,-0.0019,-0.0032,-0.0041,-0.0041,0.003,0.0031,0,0,0,-0.0001,0.0013,-0.0003,0.0001,-0.0009,-0.0025,-0.0028,-0.0023,-0.003,-0.0019,-0.0032,-0.0041,-0.0041,0.0029,0.003,0.0082,0,0,0,0.0,0.0016,-0.0002,0.0009,-0.0009,-0.002,-0.0021,-0.003,-0.0031,-0.0032,-0.0041,-0.0041,0.0028,0.003,0.0079,0.0097,0,0,0,0.0012,0.0017,0.0013,0.001,-0.0007,-0.0021,-0.0029,-0.0031,-0.0039,-0.0041,-0.0041,0.0028,0.0029,0.0076,0.0093,0.0126,0,0,0,0.003,0.004,0.0014,0.0024,-0.0006,-0.0009,-0.0029,-0.0029,-0.0028,-0.0041,0.0028,0.003,0.0075,0.009,0.0124,0.0074,0.0083,0,0,0.0052,0.0043,0.0048,0.0024,0.0027,-0.0005,0.0023,0.0013,0.0005,0.003,0.0031,0.008,0.0092,0.0126,0.017,0.0176,0,0,0,0.0062,0.0064,0.0062,0.0057,0.0044,0.0054,0.0036,0.0048,0.0078,0.0012,0.01,0.0106,0.0125,0.009,0.0095,-0.0038,0.0038,0.0038,0.0037,0.008,0.0079,0.0092,0.0091,0.0096,0.0099,0.0123,0.0142,0.0118,0.0152,0.0163,0.0243,0.0208,0.0211,0.0075,0.0182,0.0182,0.0182,0.0183,0.0097,0.0096,0.0116,0.0131,0.0144,0.0166,0.021,0.0215,0.027,0.0237,0.0253,0.0165,0.0219,0.0072,0.0186,0.0186,0.0185,0.0185,0.0185,0.0084,0.0089,0.011,0.0138,0.0176,0.0199,0.0246,0.0284,0.0315,0.0347,0.0292,0.029,0.0146,0.0348,0.0348,0.0348,0.0348,0.0349,0.0349,0.0051,0.0079,0.0099,0.0139,0.0158,0.0195,0.0261,0.0295,0.0335,0.0347,0.0347,0.0159,0.0293,0.027,0.0353,0.0352,0.0351,0.0351,0.0351,0.0015,0.0036,0.0062,0.0086,0.0137,0.0146,0.0219,0.027,0.0324,0.0338,0.0183,0.0348,0.0323,0.0318,0.0295,0.038,0.038,0.038,0.038,-0.0019,-0.0003,0.0023,0.0054,0.0092,0.0123,0.011,0.0139,0.0147,0.0114,0.0121,0.0049,0.0054,0.0009,0.0011,-0.002,-0.0017,-0.0018,-0.0018,-0.0049,-0.0031,-0.003,0.0018,0.0068,0.0079,0.0015,-0.0093,-0.0087,-0.0047,-0.0052,-0.0035,-0.0153,-0.0135,-0.0218,-0.0205,-0.0259,0,0]},{"header":{"parameterUnit":"m.s-1","parameterCategory":2,"la1":30.2992,"la2":30.254,"lo1":-89.0895,"lo2":-89.0443,"dy":0.0025,"dx":0.0025,"nx":19,"ny":19,"refTime":"2026-05-11T09:00:00:Z","depth":"0","parameterNumber":3,"parameterNumberName":"V-component_of_CURRENTS"},"data":[0,0,0,-0.0231,-0.0233,-0.0288,-0.0288,-0.0278,-0.0278,0,0,0,0,0,0,0,0,0,0,0,-0.0202,-0.0202,-0.0231,-0.0233,-0.0288,-0.0288,-0.0278,-0.0278,0,0,0,0,0,0,0,0,0,0,0,-0.0202,-0.0202,-0.0203,-0.0233,-0.0288,-0.0288,-0.0278,-0.0253,0,0,0,0,0,0,0,0,0,0,-0.0208,-0.019,-0.0202,-0.0203,-0.0234,-0.0288,-0.0288,-0.0252,-0.0254,-0.0235,0,-0.0249,0,-0.0273,-0.0276,-0.0276,0,0,0,-0.0218,-0.0189,-0.0216,-0.0203,-0.0234,-0.0288,-0.0259,-0.0254,-0.0256,-0.0237,-0.025,-0.025,-0.0273,-0.0276,-0.0276,-0.0221,-0.0221,0,0,-0.0215,-0.0197,-0.0215,-0.0218,-0.0255,-0.0257,-0.0261,-0.0256,-0.0252,-0.025,-0.0251,-0.0273,-0.0276,-0.0276,-0.0222,-0.0221,0,0,0,-0.0217,-0.0194,-0.0223,-0.0217,-0.0239,-0.0259,-0.0263,-0.0252,-0.0265,-0.0251,-0.0272,-0.0276,-0.0276,-0.0222,-0.0222,-0.0198,0,0,0,-0.0214,-0.0197,-0.0221,-0.0209,-0.024,-0.0256,-0.0258,-0.0265,-0.0266,-0.0273,-0.0276,-0.0276,-0.0223,-0.0222,-0.02,-0.019,0,0,0,-0.0198,-0.0195,-0.0206,-0.0208,-0.0241,-0.0257,-0.0269,-0.0266,-0.0279,-0.0276,-0.0276,-0.0223,-0.0222,-0.0201,-0.0192,-0.0173,0,0,0,-0.0169,-0.0185,-0.0206,-0.0221,-0.0241,-0.0257,-0.027,-0.0272,-0.0268,-0.0276,-0.0223,-0.0222,-0.0202,-0.0194,-0.0174,-0.0178,-0.0171,0,0,-0.0174,-0.0185,-0.0194,-0.0214,-0.0233,-0.0248,-0.0235,-0.0238,-0.0241,-0.0218,-0.0217,-0.0199,-0.0192,-0.0173,-0.0113,-0.0108,0,0,0,-0.0185,-0.0195,-0.0202,-0.0219,-0.0232,-0.0224,-0.0232,-0.0219,-0.0197,-0.0238,-0.0183,-0.0179,-0.0168,-0.0173,-0.0168,-0.0138,-0.0217,-0.0217,-0.0217,-0.0169,-0.0184,-0.0193,-0.0209,-0.0207,-0.02,-0.018,-0.016,-0.0171,-0.0148,-0.0147,-0.01,-0.0103,-0.01,-0.0069,-0.0133,-0.0133,-0.0133,-0.0133,-0.018,-0.0177,-0.0186,-0.0203,-0.0186,-0.0169,-0.0128,-0.0121,-0.0083,-0.01,-0.009,-0.0132,-0.0094,-0.0062,-0.0131,-0.0131,-0.0131,-0.0132,-0.0132,-0.0164,-0.016,-0.0185,-0.0196,-0.0174,-0.0153,-0.011,-0.0081,-0.0062,-0.0044,-0.0058,-0.0058,-0.0042,-0.0045,-0.0045,-0.0045,-0.0044,-0.0044,-0.0044,-0.0126,-0.0149,-0.017,-0.0184,-0.0183,-0.0155,-0.01,-0.0067,-0.0032,-0.0026,-0.0027,-0.0013,-0.0073,-0.009,-0.0042,-0.0042,-0.0043,-0.0043,-0.0043,-0.0091,-0.0115,-0.0146,-0.0164,-0.0172,-0.0166,-0.0117,-0.0059,-0.0019,-0.0004,0.0036,-0.0015,-0.0024,-0.0028,-0.0043,0.0014,0.0014,0.0014,0.0014,-0.0058,-0.0075,-0.0122,-0.0155,-0.0165,-0.0165,-0.0156,-0.0107,-0.0002,0.0048,0.0078,0.0062,0.0058,0.0053,0.0048,0.0034,0.0109,0.0109,0.0109,-0.0036,-0.0058,-0.0085,-0.014,-0.0165,-0.0173,-0.02,-0.0211,-0.0027,0.0116,0.0124,0.012,0.0099,0.0091,0.0081,0.0071,0.0047,0,0]}],[{"header":{"parameterUnit":"m.s-1","parameterCategory":2,"la1":30.2992,"la2":30.254,"lo1":-89.0895,"lo2":-89.0443,"dy":0.0025,"dx":0.0025,"nx":19,"ny":19,"refTime":"2026-05-11T09:00:00:Z","depth":"2","parameterNumber":2,"parameterNumberName":"U-component_of_CURRENTS"},"data":[0,0,0,0.0112,0.0112,0.0082,0.0081,0.0128,0.0129,0,0,0,0,0,0,0,0,0,0,0,0.013,0.013,0.0113,0.0112,0.0082,0.0081,0.0128,0.0129,0,0,0,0,0,0,0,0,0,0,0,0.013,0.013,0.013,0.0112,0.0082,0.0081,0.0128,0.013,0,0,0,0,0,0,0,0,0,0,0.0149,0.0158,0.013,0.013,0.0111,0.0082,0.0081,0.0129,0.013,0.0165,0,0.0161,0,0.0144,0.0134,0.0134,0,0,0,0.0115,0.0157,0.0142,0.013,0.0111,0.0082,0.0096,0.0129,0.013,0.0167,0.0162,0.0163,0.0145,0.0134,0.0135,0.0285,0.0286,0,0,0.0116,0.0133,0.0141,0.0143,0.0107,0.0097,0.0095,0.0129,0.0138,0.0162,0.0163,0.0146,0.0135,0.0135,0.0284,0.0285,0,0,0,0.0119,0.0135,0.0117,0.0142,0.0128,0.0096,0.0094,0.0136,0.0128,0.0163,0.0146,0.0135,0.0136,0.0282,0.0284,0.0346,0,0,0,0.012,0.0136,0.0118,0.0129,0.0127,0.0121,0.0101,0.0126,0.0129,0.0146,0.0135,0.0137,0.0281,0.0283,0.0342,0.0356,0,0,0,0.0131,0.0137,0.0132,0.013,0.0113,0.012,0.0113,0.0126,0.0119,0.0134,0.0137,0.028,0.0283,0.0338,0.035,0.0398,0,0,0,0.0151,0.0159,0.0133,0.0143,0.0114,0.0122,0.0113,0.0124,0.0138,0.0135,0.0281,0.0284,0.0337,0.0347,0.0394,0.0275,0.0282,0,0,0.0173,0.0163,0.0168,0.0143,0.0152,0.0126,0.0189,0.0198,0.0198,0.0274,0.0276,0.0343,0.035,0.0397,0.0428,0.043,0,0,0,0.0182,0.0185,0.0184,0.0182,0.0177,0.0213,0.0215,0.0252,0.0322,0.0217,0.038,0.0382,0.041,0.0332,0.0335,0.0297,0.0296,0.0296,0.0296,0.021,0.0207,0.0224,0.0228,0.0245,0.0287,0.0338,0.0398,0.0384,0.0442,0.0461,0.0575,0.0495,0.0496,0.0499,0.0499,0.05,0.05,0.05,0.0232,0.0233,0.0257,0.0273,0.0315,0.0367,0.0471,0.0496,0.0605,0.0571,0.0594,0.0435,0.0502,0.0506,0.0505,0.0504,0.0503,0.0503,0.0502,0.0231,0.0235,0.0253,0.0287,0.0349,0.041,0.0511,0.0593,0.0648,0.0694,0.0598,0.0594,0.0585,0.0705,0.0705,0.0705,0.0706,0.0706,0.0706,0.021,0.0234,0.0253,0.0296,0.032,0.0388,0.0533,0.0597,0.065,0.0657,0.0656,0.0644,0.0637,0.0598,0.0711,0.071,0.071,0.0709,0.0709,0.0183,0.0201,0.0224,0.0248,0.0308,0.0346,0.0486,0.0573,0.0646,0.0641,0.0637,0.0637,0.0601,0.0596,0.0556,0.0652,0.0652,0.0652,0.0652,0.0156,0.017,0.0192,0.0223,0.0272,0.033,0.0384,0.0364,0.041,0.0325,0.0339,0.0246,0.0256,0.0194,0.0199,0.0149,0.0138,0.0137,0.0136,0.0131,0.0145,0.0146,0.019,0.0248,0.0292,0.029,0.0139,-0.0044,0.0111,0.0197,0.0628,0.0525,0.0528,0.0459,0.0456,0.0386,0,0]},{"header":{"parameterUnit":"m.s-1","parameterCategory":2,"la1":30.2992,"la2":30.254,"lo1":-89.0895,"lo2":-89.0443,"dy":0.0025,"dx":0.0025,"nx":19,"ny":19,"refTime":"2026-05-11T09:00:00:Z","depth":"2","parameterNumber":3,"parameterNumberName":"V-component_of_CURRENTS"},"data":[0,0,0,-0.0171,-0.0172,-0.0233,-0.0233,-0.0268,-0.0268,0,0,0,0,0,0,0,0,0,0,0,-0.014,-0.014,-0.017,-0.0172,-0.0233,-0.0233,-0.0268,-0.0268,0,0,0,0,0,0,0,0,0,0,0,-0.014,-0.014,-0.0141,-0.0173,-0.0233,-0.0233,-0.0268,-0.023,0,0,0,0,0,0,0,0,0,0,-0.0175,-0.0149,-0.014,-0.0141,-0.0173,-0.0233,-0.0233,-0.0228,-0.0232,-0.0232,0,-0.0245,0,-0.0267,-0.027,-0.0271,0,0,0,-0.016,-0.0146,-0.0175,-0.0141,-0.0174,-0.0233,-0.0202,-0.0231,-0.0235,-0.0237,-0.0246,-0.0248,-0.0267,-0.0271,-0.0271,-0.0322,-0.0322,0,0,-0.0157,-0.0138,-0.0172,-0.0178,-0.0195,-0.02,-0.0204,-0.0233,-0.0232,-0.0246,-0.0249,-0.0268,-0.0271,-0.0271,-0.0322,-0.0322,0,0,0,-0.0156,-0.0135,-0.0164,-0.0175,-0.0195,-0.0202,-0.0207,-0.023,-0.0243,-0.025,-0.0268,-0.0271,-0.0272,-0.0322,-0.0322,-0.0284,0,0,0,-0.0153,-0.0136,-0.0162,-0.0149,-0.0195,-0.0218,-0.0202,-0.0241,-0.0245,-0.0268,-0.0271,-0.0272,-0.0321,-0.0322,-0.0284,-0.0265,0,0,0,-0.0136,-0.0134,-0.0145,-0.0148,-0.0183,-0.0218,-0.0233,-0.0242,-0.0257,-0.0271,-0.0272,-0.0321,-0.0322,-0.0285,-0.0266,-0.0277,0,0,0,-0.0108,-0.0127,-0.0144,-0.0165,-0.0182,-0.0211,-0.0233,-0.0246,-0.0255,-0.0271,-0.0321,-0.0322,-0.0285,-0.0267,-0.0278,-0.0247,-0.0243,0,0,-0.0118,-0.0127,-0.0139,-0.0157,-0.0186,-0.0202,-0.0224,-0.0244,-0.0269,-0.0306,-0.0307,-0.0284,-0.0266,-0.0277,-0.0287,-0.0281,0,0,0,-0.0133,-0.0144,-0.0154,-0.0175,-0.0196,-0.0207,-0.0232,-0.0256,-0.0288,-0.0282,-0.0309,-0.0299,-0.0307,-0.0291,-0.0287,-0.0325,-0.0325,-0.0325,-0.0325,-0.0115,-0.0136,-0.0152,-0.0176,-0.0183,-0.0213,-0.0229,-0.0269,-0.0282,-0.03,-0.0286,-0.0294,-0.0276,-0.0273,-0.031,-0.031,-0.031,-0.031,-0.031,-0.013,-0.0131,-0.0148,-0.0174,-0.018,-0.019,-0.0227,-0.0246,-0.0283,-0.0292,-0.0302,-0.0274,-0.0266,-0.0307,-0.0308,-0.0308,-0.0308,-0.0308,-0.0308,-0.0107,-0.0107,-0.0138,-0.0163,-0.0164,-0.0175,-0.0187,-0.0212,-0.025,-0.0252,-0.025,-0.025,-0.0263,-0.0253,-0.0253,-0.0253,-0.0253,-0.0253,-0.0253,-0.006,-0.0092,-0.0117,-0.0146,-0.0151,-0.0144,-0.0163,-0.0182,-0.0198,-0.0213,-0.0213,-0.0275,-0.0277,-0.0262,-0.0253,-0.0253,-0.0253,-0.0253,-0.0253,-0.0024,-0.0047,-0.0087,-0.0111,-0.0137,-0.0142,-0.0147,-0.0163,-0.0183,-0.0191,-0.0207,-0.0209,-0.0222,-0.0225,-0.021,-0.0188,-0.0188,-0.0188,-0.0188,0.0014,-0.0004,-0.006,-0.0102,-0.0124,-0.0138,-0.0164,-0.015,-0.0144,-0.0116,-0.0119,-0.0113,-0.0117,-0.0125,-0.0131,-0.0115,-0.0068,-0.0067,-0.0067,0.0034,0.0011,-0.0022,-0.0085,-0.0122,-0.0139,-0.0179,-0.0181,-0.0104,-0.0062,-0.0096,-0.018,-0.0181,-0.0184,-0.0205,-0.0211,-0.0188,0,0]}],[{"header":{"parameterUnit":"m.s-1","parameterCategory":2,"la1":30.2992,"la2":30.254,"lo1":-89.0895,"lo2":-89.0443,"dy":0.0025,"dx":0.0025,"nx":19,"ny":19,"refTime":"2026-05-11T09:00:00:Z","depth":"4","parameterNumber":2,"parameterNumberName":"U-component_of_CURRENTS"},"data":[0,0,0,-0.0776,-0.0781,-0.0942,-0.0942,-0.1047,-0.1048,0,0,0,0,0,0,0,0,0,0,0,-0.0722,-0.0725,-0.0776,-0.0782,-0.0942,-0.0942,-0.1047,-0.1048,0,0,0,0,0,0,0,0,0,0,0,-0.0721,-0.0724,-0.0727,-0.0783,-0.0942,-0.0942,-0.1047,-0.0939,0,0,0,0,0,0,0,0,0,0,-0.079,-0.0776,-0.0723,-0.0727,-0.0784,-0.0942,-0.0942,-0.0934,-0.0945,-0.0961,0,-0.1033,0,-0.1065,-0.1058,-0.1058,0,0,0,-0.0733,-0.0767,-0.0818,-0.0728,-0.0786,-0.0942,-0.0856,-0.0941,-0.0954,-0.0976,-0.1035,-0.104,-0.1067,-0.1059,-0.1059,-0.1199,-0.12,0,0,-0.0724,-0.0731,-0.081,-0.0828,-0.0889,-0.0851,-0.0862,-0.0949,-0.0982,-0.1035,-0.1043,-0.1069,-0.1059,-0.106,-0.1199,-0.1199,0,0,0,-0.0732,-0.0725,-0.0774,-0.0823,-0.0873,-0.0857,-0.0869,-0.0977,-0.0999,-0.1044,-0.107,-0.106,-0.1062,-0.1198,-0.1199,-0.1155,0,0,0,-0.0724,-0.0733,-0.0771,-0.0773,-0.0874,-0.0944,-0.0895,-0.0992,-0.1003,-0.107,-0.106,-0.1063,-0.1198,-0.1199,-0.1155,-0.1145,0,0,0,-0.0704,-0.073,-0.0768,-0.0774,-0.0866,-0.0943,-0.0967,-0.0994,-0.1021,-0.1058,-0.1064,-0.1197,-0.1199,-0.1155,-0.1146,-0.1158,0,0,0,-0.0671,-0.0732,-0.077,-0.0857,-0.0866,-0.0969,-0.0967,-0.1017,-0.1048,-0.1061,-0.1198,-0.1199,-0.1155,-0.1146,-0.1157,-0.0972,0,0,0,-0.0708,-0.0737,-0.0784,-0.0821,-0.0916,-0.094,-0.1032,-0.1056,-0.1071,-0.1152,-0.1156,-0.1155,-0.1146,-0.1158,-0.1045,0,0,0,0,-0.0767,-0.08,-0.0838,-0.0921,-0.1,-0.1053,-0.1099,-0.1116,-0.1138,-0.1111,-0.1192,-0.1189,-0.1196,-0.109,-0.1205,-0.1205,-0.1205,-0.1204,-0.1204,-0.0737,-0.0804,-0.0888,-0.0975,-0.1047,-0.1132,-0.1161,-0.1199,-0.1194,-0.1187,-0.1179,-0.1196,-0.1084,-0.1206,-0.1206,-0.1205,-0.1205,-0.1205,-0.1205,-0.0739,-0.079,-0.0905,-0.0994,-0.109,-0.1152,-0.1227,-0.1208,-0.1224,-0.1203,-0.1212,-0.1084,-0.1202,-0.1202,-0.1203,-0.1203,-0.1204,-0.1204,-0.1204,-0.0674,-0.072,-0.0819,-0.097,-0.1059,-0.1125,-0.1175,-0.1198,-0.1185,-0.1182,-0.1063,-0.1185,-0.1159,-0.1161,-0.1161,-0.1161,-0.1161,-0.1161,-0.1161,-0.0563,-0.0689,-0.0774,-0.0923,-0.0986,-0.1025,-0.1118,-0.1116,-0.1123,-0.1015,-0.1151,-0.1182,-0.1183,-0.1159,-0.1161,-0.1161,-0.1161,-0.1161,-0.1161,-0.0475,-0.0572,-0.0668,-0.076,-0.0902,-0.0912,-0.1047,-0.0998,-0.0984,-0.09,-0.0947,-0.0957,-0.0963,-0.097,-0.0938,-0.0874,-0.0871,-0.0869,0,-0.0396,-0.0455,-0.0583,-0.0704,-0.0753,-0.0854,-0.0777,-0.0794,-0.079,-0.074,-0.0951,-0.1005,-0.101,-0.102,-0.1022,-0.0986,0,0,0,-0.033,-0.0378,-0.0415,-0.0599,-0.0671,-0.0663,-0.073,-0.0681,-0.0811,-0.0736,-0.0809,-0.0825,-0.1056,-0.1161,-0.1196,-0.1198,-0.1161,0,0]},{"header":{"parameterUnit":"m.s-1","parameterCategory":2,"la1":30.2992,"la2":30.254,"lo1":-89.0895,"lo2":-89.0443,"dy":0.0025,"dx":0.0025,"nx":19,"ny":19,"refTime":"2026-05-11T09:00:00:Z","depth":"4","parameterNumber":3,"parameterNumberName":"V-component_of_CURRENTS"},"data":[0,0,0,0.0239,0.0241,0.0272,0.0272,0.0263,0.0263,0,0,0,0,0,0,0,0,0,0,0,0.0233,0.0234,0.0239,0.0241,0.0272,0.0272,0.0263,0.0263,0,0,0,0,0,0,0,0,0,0,0,0.0233,0.0234,0.0235,0.0241,0.0272,0.0272,0.0263,0.0245,0,0,0,0,0,0,0,0,0,0,0.0218,0.023,0.0234,0.0235,0.0241,0.0272,0.0272,0.0244,0.0246,0.0242,0,0.0274,0,0.0277,0.0263,0.0263,0,0,0,0.0215,0.0228,0.0241,0.0235,0.0242,0.0272,0.0251,0.0246,0.0247,0.0244,0.0274,0.0274,0.0277,0.0263,0.0264,0.023,0.0229,0,0,0.0213,0.0226,0.0241,0.0244,0.0285,0.025,0.0252,0.0247,0.026,0.0274,0.0273,0.0277,0.0264,0.0264,0.023,0.023,0,0,0,0.0226,0.0225,0.0239,0.0244,0.0259,0.0252,0.0254,0.026,0.0267,0.0273,0.0277,0.0264,0.0264,0.0231,0.023,0.0143,0,0,0,0.0223,0.0234,0.0239,0.0244,0.0261,0.0268,0.0267,0.0267,0.0267,0.0277,0.0264,0.0264,0.0231,0.023,0.0146,0.0122,0,0,0,0.0226,0.0234,0.0249,0.0245,0.0271,0.0268,0.0273,0.0267,0.027,0.0263,0.0264,0.0231,0.023,0.0149,0.0127,0.0161,0,0,0,0.0219,0.0216,0.025,0.0236,0.0271,0.0236,0.0273,0.0237,0.0223,0.0264,0.0231,0.023,0.015,0.013,0.0163,0.0137,0,0,0,0.0194,0.0214,0.0196,0.0226,0.0176,0.0228,0.0178,0.0178,0.0209,0.0226,0.0226,0.0145,0.0128,0.0161,0.0075,0,0,0,0,0.0169,0.0164,0.0153,0.0144,0.0137,0.0126,0.0142,0.0157,0.0149,0.0206,0.0148,0.0141,0.0165,0.0154,0.0225,0.0225,0.0225,0.0225,0.0225,0.0138,0.0116,0.0074,0.0054,0.0041,0.0046,0.0043,0.0072,0.0098,0.0082,0.0071,0.0039,0.0021,0.0067,0.0067,0.0066,0.0066,0.0066,0.0066,0.0072,0.0039,0.0017,-0.0032,-0.0039,-0.0067,-0.0047,-0.0029,-0.0005,0.0007,0.0035,0.0062,0.0057,0.0059,0.006,0.0061,0.0062,0.0062,0.0063,0.0043,0.0021,0.0004,-0.0063,-0.0117,-0.0134,-0.0148,-0.0125,-0.0073,-0.0075,-0.003,0.001,0.0021,-0.0053,-0.0053,-0.0053,-0.0053,-0.0053,-0.0053,0.0027,0.0005,-0.0042,-0.0103,-0.0158,-0.0204,-0.0204,-0.0185,-0.0141,-0.0113,-0.0087,0.0001,0.0005,0.0016,-0.0053,-0.0053,-0.0053,-0.0053,-0.0053,-0.0009,-0.0002,-0.0077,-0.0127,-0.0247,-0.0262,-0.0257,-0.0216,-0.0176,-0.0147,-0.0102,-0.01,-0.005,-0.0044,-0.0032,-0.0119,-0.012,-0.012,0,-0.0025,-0.0032,-0.0123,-0.0214,-0.0293,-0.0313,-0.0283,-0.0252,-0.0186,-0.0174,-0.0163,-0.0113,-0.0111,-0.0056,-0.0051,-0.0039,0,0,0,-0.0048,-0.0072,-0.0143,-0.0235,-0.0332,-0.0313,-0.0273,-0.0255,-0.0194,-0.0198,-0.0134,-0.013,-0.0137,-0.0053,0.0031,0.0036,0.006,0,0]}]]